{"data":{"norad_id":60042,"epoch":"2026-05-24T23:47:21.325920Z","epoch_age_seconds":86471,"freshness":"FRESH","line1":"1 60042U 24112E   26144.99121905  .00002621  00000+0  26483-4 0  9992","line2":"2 60042  53.1576 250.2321 0001113  77.8089 282.3054 15.69715517112961","mean_motion":15.69715517,"eccentricity":0.0001113,"inclination_deg":53.1576,"raan_deg":250.2321,"arg_perigee_deg":77.8089,"mean_anomaly_deg":282.3054,"bstar":2.6483e-5,"rev_number":11296,"period_min":91.736367794343,"perigee_km":358.96104044554,"apogee_km":360.46088540209,"semimajor_km":6737.8479629238,"source":"CELESTRAK","updated_at":"2026-05-25T13:38:19.152733Z"}}